#timestamp,LO_Frequency,Hit,StdDev 
1570766415.6,286046999.0,N
1570766435.5,286046996.6,N
1570766455.3,286046997.5,N
1570766475.1,286046995.0,Y
1570766495.9,286046999.3,P
1570766515.7,286047000.1,N
1570766535.6,286047000.2,N
1570766555.4,286047002.3,Y
1570766575.2,286047001.6,P
1570766595.1,286046999.8,N
1570766596.0,286046999.8,N
1570766615.8,286046998.4,N
1570766635.6,286046998.1,N
1570766655.5,286047000.5,N
1570766675.3,286047000.8,N
1570766695.2,286047001.7,N
1570766715.9,286046999.8,N
1570766735.7,286047000.4,N
1570766755.6,286047002.8,N
1570766775.4,286046998.2,N
1570766795.3,286046998.5,N
1570766815.1,286047000.1,N
1570766835.2,286046998.1,N
1570766855.0,286046999.5,N
1570766855.9,286046999.5,N
1570766875.8,286046998.4,N
1570766895.6,286046999.5,N
1570766915.4,286046999.5,N
1570766935.3,286046998.1,N
1570766955.1,286046998.1,N
1570766975.9,286046998.5,N
1570766995.7,286047000.9,N
1570767015.5,286047000.1,N
1570767035.4,286047002.7,N
1570767055.2,286046999.7,N
1570767075.0,286046998.4,N
1570767075.9,286046998.4,N
1570767095.8,286047001.2,N
1570767115.6,286047002.2,N
1570767135.5,286047003.9,N
1570767155.3,286047002.5,N
1570767175.1,286047001.5,N
1570767195.9,286047000.8,N
1570767215.7,286046998.3,N
1570767235.5,286046998.3,N
1570767255.4,286046998.5,N
1570767275.2,286047000.0,N
1570767295.1,286047002.2,N
1570767296.0,286047002.2,N
1570767315.8,286047002.9,N
1570767335.6,286047004.2,N
1570767355.5,286047001.3,N
1570767375.3,286047002.6,N
1570767395.2,286047001.4,N
1570767415.9,286047004.3,N
1570767435.7,286047001.5,N
1570767455.6,286047001.3,N
1570767475.4,286047001.7,N
1570767495.3,286047000.1,N
1570767515.1,286047000.3,N
1570767516.0,286047000.3,N
1570767535.8,286047000.2,N
1570767555.7,286047000.0,N
1570767575.5,286047000.2,N
1570767595.4,286047000.9,N
1570767615.2,286046999.7,N
1570767635.0,286047002.3,N
1570767635.9,286047002.3,N
1570767655.8,286047000.6,N
1570767675.6,286046998.3,N
1570767695.5,286046999.9,N
1570767715.3,286047006.0,Y
1570767735.1,286047005.1,P
1570767755.9,286047003.5,N
1570767775.7,286047002.2,N
1570767795.5,286046999.7,N
1570767815.4,286047002.1,N
1570767835.2,286047003.7,N
1570767855.1,286047001.4,N
1570767856.0,286047001.4,N
1570767875.8,286047001.7,N
1570767895.6,286047003.6,N
1570767915.5,286047005.5,Y
1570767935.3,286047002.2,P
1570767955.2,286047000.0,N
1570767975.9,286047001.2,N
1570767995.7,286046998.6,N
1570768015.6,286046998.7,N
1570768035.4,286047000.8,N
1570768055.2,286046998.5,N
1570768075.1,286046999.1,N
1570768076.0,286046999.1,N
1570768095.8,286046996.8,N
1570768115.7,286046996.5,N
1570768135.5,286046999.0,N
1570768155.3,286046999.3,N
1570768175.2,286047001.2,N
1570768195.0,286047001.2,N
1570768195.9,286047001.2,N
1570768215.8,286047002.4,N
1570768235.6,286047000.2,N
1570768255.3,286046999.8,N
1570768275.1,286047000.7,N
1570768295.9,286047000.7,N
1570768315.7,286047000.4,N
1570768335.6,286047001.9,N
1570768355.4,286047002.3,N
1570768375.2,286047002.2,N
1570768395.1,286047002.0,N
1570768396.0,286047002.0,N
1570768415.8,286047000.1,N
1570768435.7,286047002.8,N
1570768455.5,286047001.1,N
1570768475.3,286047000.7,N
1570768495.2,286047000.5,N
1570768515.9,286046998.5,N
1570768535.7,286046998.2,N
1570768555.6,286046998.5,N
1570768575.4,286047000.6,N
1570768595.2,286047002.5,N
1570768615.1,286046999.7,N
1570768616.0,286046999.7,N
1570768635.8,286047002.4,N
1570768655.7,286047002.8,N
1570768675.5,286047003.1,N
1570768695.3,286047003.0,N
1570768715.2,286047006.0,Y
1570768735.0,286047003.8,P
1570768735.9,286047003.8,N
1570768755.8,286047003.9,P
1570768775.6,286047003.6,N
1570768795.4,286047004.3,Y
1570768815.3,286046998.1,P
1570768835.1,286046998.3,N
1570768855.9,286046999.1,N
1570768875.7,286046997.7,N
1570768895.5,286046996.1,N
1570768915.4,286046993.3,Y
1570768935.2,286046995.2,P
1570768955.0,286046997.5,N
1570768956.0,286046997.5,N
1570768975.8,286046996.7,N
1570768995.6,286046995.4,Y
1570769015.5,286046999.3,P
1570769035.3,286046997.0,N
1570769055.1,286046997.0,N
1570769075.9,286047001.0,N
1570769095.7,286046998.9,N
1570769115.6,286046998.9,N
1570769135.4,286046998.5,N
1570769155.2,286046998.4,N
1570769175.1,286046999.0,N
1570769176.0,286046999.0,N
1570769195.8,286046996.6,Y
1570769215.7,286047000.0,P
1570769235.5,286046999.9,N
1570769255.3,286047002.6,P
1570769275.2,286047004.2,N
1570769295.0,286047006.0,N
1570769295.9,286047006.0,N
1570769315.7,286047005.4,N
1570769335.6,286047004.8,N
1570769355.4,286047001.5,N
1570769375.3,286047001.7,N
1570769395.1,286047003.7,N
1570769396.0,286047003.7,N
1570769415.8,286047004.0,N
1570769435.7,286047001.7,N
1570769455.5,286047003.4,N
1570769475.3,286047005.4,N
1570769495.2,286047005.3,N
1570769515.0,286047003.6,N
1570769515.9,286047003.6,N
1570769535.8,286047004.8,N
1570769555.6,286047003.8,N
1570769575.4,286047005.4,N
1570769595.3,286047003.8,N
1570769615.1,286047003.6,N
1570769635.9,286047003.3,N
1570769655.7,286047005.0,N
1570769675.5,286047007.5,Y
1570769695.4,286047002.4,P
1570769715.2,286047002.2,P
1570769735.1,286047004.1,P
1570769736.0,286047004.1,Y
1570769755.8,286047000.5,P
1570769775.6,286046996.9,N
1570769795.5,286046999.3,N
1570769815.3,286046999.4,N
1570769835.2,286046999.2,N
1570769855.9,286046999.2,N
1570769875.7,286046999.2,N
1570769895.6,286046998.6,N
1570769915.4,286046998.3,N
1570769935.2,286046999.1,N
1570769955.1,286046998.9,N
1570769956.0,286046998.9,N
1570769975.8,286046999.3,N
1570769995.7,286047001.2,N
